Wind_Speed
70 68 79 64 64 65 57 55 56 60 58 62 50 53 50 49 46 43 41 37 31 30 34 43 41 43 46 44 46 49 52 53 51 49 46 41 43 38
74 76 82 66 60 71 57 60 64 58 55 61 63 58 56 55 49 43 40 41 38 37 33 34 40 38 37 43 49 53 55 57 55 52 52 46 53 48
76 67 77 70 69 60 60 65 66 61 58 63 60 59 64 61 58 52 49 46 44 42 40 37 34 40 39 37 48 52 57 64 69 61 57 57 58 55
75 71 80 71 66 64 55 57 62 68 68 61 62 63 68 65 62 60 59 55 46 47 47 46 42 42 40 44 44 48 58 67 68 72 70 60 62 60
83 83 80 61 70 76 77 72 71 72 74 69 60 64 67 69 67 63 64 57 50 50 49 47 47 46 46 45 45 46 42 56 65 71 71 72 67 63
81 78 73 74 65 76 77 78 71 76 75 75 70 69 69 70 70 66 64 61 56 53 50 49 48 51 51 47 46 40 41 34 59 67 71 72 69 68
81 84 86 75 62 69 70 67 67 70 72 71 72 70 76 72 71 70 69 67 62 56 57 53 50 48 52 51 47 44 41 35 33 54 68 72 73 71
81 88 88 90 64 59 65 62 66 67 76 77 69 70 76 73 74 68 67 66 65 62 62 61 54 49 52 52 48 47 45 43 39 42 48 66 75 77
87 90 79 70 63 57 58 60 63 67 64 68 69 70 71 75 77 72 68 71 70 68 63 60 61 55 55 55 49 49 48 47 48 47 48 54 64 70
80 72 66 64 58 49 49 47 62 63 60 71 72 74 77 78 83 81 75 72 73 74 67 59 66 64 58 58 57 54 54 54 52 53 52 51 58 67
63 65 63 51 61 58 57 58 61 63 61 75 79 81 80 83 86 89 88 82 80 80 75 69 68 64 62 61 62 59 58 57 57 56 55 52 53 63
77 72 66 61 63 70 71 62 75 76 78 78 71 81 82 87 89 90 90 90 85 81 82 76 74 71 67 64 66 64 61 61 61 60 59 53 51 53
68 70 73 67 69 70 70 73 72 67 73 71 75 83 82 85 90 90 91 90 87 86 83 80 78 78 73 70 71 71 70 65 64 62 63 59 54 51
70 75 76 70 67 71 72 77 76 80 75 79 79 76 78 87 91 92 91 91 90 91 89 86 84 81 77 73 74 74 75 70 69 66 64 64 61 55
76 83 80 77 75 74 74 77 75 80 81 80 80 80 82 87 89 92 92 95 94 93 93 90 88 86 83 79 75 76 78 74 75 73 70 66 64 61
82 81 84 85 85 82 82 83 85 85 87 87 85 90 89 92 94 94 96 96 97 98 95 92 91 88 85 83 83 81 80 77 80 79 74 72 69 68
89 90 89 88 88 91 94 94 93 93 90 91 95 98 101 102 100 103 102 101 102 102 102 103 97 91 88 85 84 85 85 81 83 86 83 80 78 75
91 90 93 97 99 100 99 102 99 100 100 103 105 108 110 111 111 112 113 110 110 110 112 109 106 103 100 95 92 92 90 90 90 90 90 88 84 84
93 94 98 102 107 108 110 111 112 111 114 111 116 116 116 120 120 123 120 120 116 115 116 118 117 115 112 108 104 101 99 99 97 97 97 94 91 89
99 102 105 108 111 116 119 120 121 122 123 125 123 124 129 126 128 130 130 128 124 123 121 121 122 121 119 116 113 110 107 105 104 101 100 100 99 96
105 108 112 114 119 121 122 125 127 130 130 128 129 130 133 137 138 137 137 136 134 131 127 129 128 126 126 125 123 121 119 116 114 112 108 107 108 107
113 116 118 118 119 122 125 127 131 132 133 134 134 134 135 136 136 136 138 140 140 138 136 136 135 132 130 131 131 128 125 124 121 117 115 113 110 110
105 111 114 117 122 125 126 127 129 131 132 131 134 135 136 136 139 142 141 140 140 139 136 135 137 135 132 136 136 135 133 131 127 124 123 122 120 119
Wind_Direction
237 236 225 244 252 253 252 259 267 272 271 273 277 254 254 256 255 254 256 254 255 254 239 240 240 243 240 246 250 248 247 247 249 250 246 253 252 252
240 238 228 229 232 236 248 251 257 262 265 266 276 262 249 252 251 248 253 252 252 250 252 248 245 249 258 257 259 258 255 254 247 249 251 246 249 248
226 229 223 225 235 237 242 250 247 253 251 267 273 263 253 249 250 250 248 247 248 250 248 245 251 249 261 278 263 258 266 259 251 250 249 251 251 250
218 218 213 220 232 229 236 240 248 255 256 273 263 261 251 252 251 250 247 246 243 246 250 253 259 262 271 277 282 277 273 252 247 247 250 251 252 251
213 212 209 205 221 226 233 232 243 250 257 258 267 254 250 248 249 252 253 254 242 244 248 252 260 267 275 281 288 287 296 247 236 241 244 249 250 249
208 206 197 207 219 222 226 232 240 248 251 259 264 255 247 248 249 248 253 256 252 249 250 253 259 266 273 281 287 296 304 275 244 237 242 246 250 253
209 202 198 208 216 224 226 228 236 243 251 255 258 263 250 246 248 252 253 257 256 255 254 250 256 266 270 278 285 294 299 296 279 255 253 247 248 251
205 202 202 211 222 227 228 233 244 249 254 257 260 258 247 245 247 250 252 251 254 257 252 256 258 263 269 276 283 290 294 292 290 277 267 256 257 252
204 203 213 217 226 228 232 239 244 250 254 257 253 247 246 244 245 247 248 250 253 252 255 259 257 261 265 271 278 282 284 286 284 285 279 266 257 255
204 204 212 218 227 230 235 242 248 249 256 256 245 244 243 245 244 244 245 248 249 254 255 256 258 261 263 266 273 277 282 282 285 283 283 277 265 255
200 210 213 218 225 218 219 233 239 235 233 254 257 250 246 245 245 245 246 246 248 249 250 252 257 258 261 263 267 273 277 279 282 283 281 284 276 262
202 208 214 221 226 230 229 228 236 227 241 249 250 251 248 245 246 248 248 248 249 250 251 255 256 258 259 261 266 269 274 276 279 282 282 284 284 274
208 212 213 223 221 222 228 229 231 234 243 244 245 246 246 243 244 249 252 254 255 255 254 255 257 259 258 260 264 267 270 273 274 279 281 283 282 283
216 219 222 229 235 235 237 240 236 236 239 241 241 244 245 243 245 247 250 254 257 259 258 257 257 258 258 258 260 266 268 271 272 274 277 279 281 283
221 223 221 226 234 237 235 233 240 237 237 240 242 241 243 244 245 250 251 253 254 256 258 257 256 257 258 260 259 262 265 267 270 271 274 274 277 279
222 224 227 228 230 233 234 237 237 237 239 241 240 242 246 249 249 249 251 252 255 255 255 257 257 257 257 259 260 259 261 264 267 268 271 272 273 273
227 228 230 232 234 235 236 238 241 242 241 239 241 242 244 246 248 250 252 253 255 255 257 257 256 257 259 259 258 259 260 261 265 268 269 270 271 271
230 234 237 236 237 239 240 240 243 241 241 241 241 244 245 246 248 252 253 253 254 255 255 256 258 259 259 258 259 259 260 259 261 264 266 267 268 269
236 237 240 241 240 241 243 243 243 245 246 248 246 244 244 245 248 250 252 254 255 256 258 260 259 258 258 259 261 262 262 263 263 264 263 266 268 270
239 241 242 242 244 245 244 245 245 248 248 248 249 250 250 249 251 251 253 255 257 258 259 260 260 261 261 262 262 263 263 263 264 265 265 268 269 269
246 246 246 245 245 246 248 249 251 252 253 254 257 257 256 254 254 256 257 257 258 260 261 262 263 264 265 266 267 266 265 265 265 265 265 266 268 269
251 250 250 252 253 254 254 255 256 257 259 260 261 261 261 262 262 262 262 262 264 267 267 266 266 267 267 266 267 268 268 268 267 266 264 265 265 265
258 258 258 258 258 258 259 261 261 261 261 262 262 263 264 264 264 264 265 265 267 269 269 269 269 269 269 268 267 268 268 268 267 267 267 267 268 267
Height
10550 10554 10569 10570 10569 10576 10577 10578 10573 10576 10574 10576 10582 10586 10587 10590 10591 10591 10592 10594 10594 10596 10598 10600 10602 10604 10605 10607 10608 10610 10611 10614 10615 10617 10618 10621 10622 10623
10518 10530 10540 10547 10550 10557 10565 10565 10565 10565 10565 10562 10566 10572 10576 10577 10579 10582 10582 10584 10585 10587 10589 10591 10593 10595 10597 10598 10598 10599 10601 10602 10603 10604 10607 10609 10610 10612
10497 10501 10512 10525 10534 10545 10547 10545 10548 10553 10557 10554 10556 10557 10560 10562 10564 10569 10571 10572 10575 10577 10580 10582 10583 10585 10585 10586 10585 10585 10585 10585 10588 10591 10593 10595 10598 10600
10470 10479 10495 10510 10524 10530 10531 10528 10532 10537 10545 10542 10541 10542 10546 10547 10548 10552 10555 10558 10563 10566 10568 10569 10571 10573 10573 10572 10570 10568 10561 10561 10567 10573 10577 10581 10583 10586
10445 10458 10473 10488 10494 10495 10505 10514 10519 10522 10529 10529 10527 10529 10531 10532 10534 10537 10540 10545 10549 10552 10554 10555 10557 10558 10559 10558 10555 10551 10540 10538 10546 10553 10559 10564 10568 10572
10427 10447 10459 10467 10468 10476 10487 10494 10502 10505 10510 10512 10515 10514 10514 10515 10520 10523 10526 10531 10536 10539 10541 10543 10544 10543 10544 10544 10543 10539 10534 10530 10534 10538 10543 10547 10552 10556
10415 10426 10436 10446 10453 10459 10470 10479 10485 10487 10493 10497 10499 10499 10498 10501 10506 10509 10513 10516 10521 10524 10528 10527 10530 10531 10530 10531 10530 10527 10525 10524 10525 10527 10530 10533 10535 10539
10402 10416 10426 10431 10443 10453 10461 10467 10473 10474 10478 10479 10480 10480 10481 10486 10491 10494 10496 10500 10504 10507 10510 10511 10515 10515 10517 10517 10515 10513 10513 10514 10514 10515 10516 10516 10518 10521
10389 10405 10418 10431 10436 10439 10445 10449 10453 10456 10458 10458 10460 10461 10464 10467 10472 10478 10479 10483 10486 10487 10495 10498 10498 10499 10502 10504 10503 10502 10502 10502 10502 10502 10502 10501 10501 10502
10383 10399 10408 10412 10417 10425 10431 10435 10436 10439 10441 10442 10442 10443 10444 10450 10451 10456 10462 10467 10468 10468 10479 10485 10480 10484 10486 10489 10490 10489 10488 10488 10489 10487 10487 10484 10483 10484
10376 10384 10391 10399 10400 10408 10410 10412 10415 10420 10422 10418 10426 10428 10430 10431 10431 10435 10439 10446 10449 10451 10458 10468 10463 10467 10470 10473 10475 10475 10474 10473 10472 10472 10471 10468 10465 10464
10359 10367 10372 10374 10381 10387 10393 10395 10395 10395 10400 10408 10408 10406 10409 10412 10412 10413 10418 10424 10430 10434 10440 10448 10448 10449 10453 10455 10456 10459 10458 10456 10456 10455 10454 10452 10450 10450
10352 10355 10359 10360 10362 10369 10373 10375 10378 10382 10380 10384 10384 10386 10388 10389 10390 10395 10399 10404 10409 10414 10420 10426 10429 10430 10436 10438 10437 10439 10438 10439 10439 10439 10436 10435 10436 10435
10337 10342 10345 10347 10350 10355 10356 10356 10358 10359 10358 10361 10362 10362 10365 10368 10372 10374 10378 10383 10387 10390 10397 10402 10406 10409 10415 10420 10422 10418 10419 10420 10421 10421 10420 10420 10420 10419
10321 10323 10324 10326 10328 10332 10333 10335 10336 10339 10339 10339 10339 10340 10341 10344 10349 10352 10355 10360 10364 10367 10372 10377 10382 10385 10391 10397 10402 10401 10399 10400 10400 10401 10402 10402 10402 10402
10305 10307 10309 10308 10307 10309 10312 10313 10313 10314 10315 10317 10317 10318 10320 10323 10326 10329 10331 10334 10338 10342 10345 10349 10355 10361 10366 10370 10374 10378 10378 10380 10379 10380 10382 10382 10383 10383
10288 10289 10289 10288 10288 10288 10289 10290 10292 10293 10292 10293 10294 10294 10295 10296 10298 10301 10305 10307 10311 10315 10318 10322 10327 10333 10338 10343 10348 10350 10355 10357 10358 10357 10358 10359 10360 10361
10268 10268 10268 10267 10267 10266 10265 10265 10266 10265 10265 10266 10267 10268 10269 10269 10271 10272 10275 10279 10282 10285 10290 10295 10300 10304 10309 10314 10319 10323 10326 10329 10333 10333 10334 10335 10335 10337
10241 10243 10243 10242 10240 10239 10238 10238 10238 10238 10240 10240 10240 10239 10238 10238 10239 10242 10244 10249 10252 10257 10261 10265 10269 10274 10279 10285 10289 10294 10298 10301 10303 10307 10308 10308 10310 10312
10216 10216 10215 10214 10212 10210 10209 10208 10207 10207 10208 10208 10209 10210 10210 10209 10210 10211 10213 10217 10221 10226 10229 10232 10235 10238 10244 10251 10257 10261 10265 10270 10273 10276 10277 10279 10282 10285
10190 10190 10189 10185 10182 10180 10180 10179 10177 10176 10176 10177 10177 10177 10177 10178 10177 10178 10180 10183 10188 10192 10197 10199 10201 10205 10209 10212 10218 10223 10229 10235 10240 10244 10247 10249 10251 10253
10163 10160 10158 10155 10152 10150 10149 10148 10147 10144 10143 10143 10141 10139 10141 10143 10142 10143 10146 10149 10153 10158 10162 10166 10168 10170 10173 10177 10180 10184 10189 10194 10199 10205 10211 10215 10219 10220
10128 10125 10123 10121 10118 10117 10114 10110 10109 10106 10104 10103 10101 10100 10101 10102 10103 10104 10108 10111 10114 10116 10119 10123 10126 10129 10133 10136 10140 10143 10149 10154 10159 10164 10169 10175 10179 10181